KMKC

Charles B. Wheeler Downtown Airport

Airport
ICAO code
KMKC
IATA Code
MKC
Summary
ICAO Region
NAM
ICAO Territory
Location

Kansas City, Missouri

Serving
Kansas City
Elevation
757 ft
Coordinates
39° 7' 24" N , 94° 35' 34" W
KCC
Metar
KMKC 181619Z 36014G19KT 4SM VCTS -RA BR OVC010 13/12 A2994 RMK AO2 LTG DSNT NW-E TSE17 CIG 006V014 P0013 T01330117

Description

Charles B. Wheeler Downtown Airport, also known as Kansas City Downtown Airport, is a public airport located in Kansas City, Missouri.

Runways

Designator Length Width Surface Rops
3/21 1539 46 ASP Yes/Yes
1/19 2134 46 CON Yes/Yes

Airport map

Aerial View

SKYbrary Partners:

Safety knowledge contributed by: